www.pogodaiklimat.ru

Погода и климат >> Архив погоды >> Индонезия >> Чуруг


ПОГОДА в Чуруге

  • Прогноз погоды в Чуруге
  • Монитор погоды в Чуруге

АРХИВ ПОГОДЫ в Чуруге

Время (UTC), дата Ветер
(напр.,м/с)
 
Видим.   Явления Облачность Т
(С)
Тd
(С)
f
(%)
Тe
(С)
Тes
(С)
Комфортность P
(гПа)
Po
(гПа)
Тmin
(С)
Tmax
(С)
R
(мм)
R24
(мм)
S
(см)
03 20.06 ЮВ 2 7000 м 6/3 750 м
[Sc Ac trans Ci sp]
+27.7 +22.6 74 +37 +44 очень
душно
1012.0 1006.7
06 20.06 З 2 10 км 6/3 750 м
[Sc As op Ci sp]
+33.1 +21.1 49 +40 +49 очень
душно
1009.8 1004.5
09 20.06 С 3 5000 м мгла 9/3 600 м
[Sc As trans Ci fib]
+31.8 +23.1 60 +42 +43 опасность
перегрева
1008.4 1003.1
12 20.06 СЗ 1 4000 м мгла 10/5 540 м
[Sc As op]
+26.9 +23.0 79 +36 +36 очень
душно
1009.9 1004.6 +33.9
15 20.06 штиль 0 3000 м мгла 10/5 540 м
[Sc As op]
+26.0 +23.1 84 +35 +35 очень
душно
1011.3 1006.1
18 20.06 штиль 0 1900 м мгла 10/5 540 м
[St As op]
+23.9 +21.4 86 +30 +30 очень
душно
1010.7 1005.5
21 20.06 штиль 0 1000 м дымка 10/5 540 м
[St As op]
+23.4 +22.4 94 +32 +32 очень
душно
1010.4 1005.1
00 21.06 ЮЗ 2 1000 м дымка 9/4 600 м
[Sc As trans Ci sp]
+22.8 +22.5 98 +31 +31 очень
душно
1011.1 1005.8 +22.6
03 21.06 С 2 6000 м 9/4 540 м
[Cu med, cong As trans Ci sp]
+32.2 +24.1 62 +44 +49 опасность
перегрева
1011.3 1006.0
06 21.06 З 1 5000 м 9/4 540 м
[Cu med, cong As op Ci sp]
+32.1 +22.4 57 +42 +48 опасность
перегрева
1009.4 1004.1
09 21.06 С 4 6000 м 9/4 540 м
[Sc As op Ci sp]
+30.2 +23.6 68 +41 +42 опасность
перегрева
1008.3 1003.0
12 21.06 З 2 6000 м 9/4 540 м
[Sc As op Ci sp]
+27.0 +23.2 80 +36 +36 очень
душно
1009.9 1004.6 +32.4
15 21.06 штиль 0 2500 м мгла 9/4 540 м
[Sc As op Ci sp]
+25.6 +23.5 88 +35 +35 очень
душно
1010.9 1005.6
18 21.06 ЮЗ 2 1200 м мгла 8/4 540 м
[Sc As op Ci sp]
+24.2 +23.3 95 +32 +32 очень
душно
1010.2 1004.9
21 21.06 Ю 1 1500 м дымка 8/4 540 м
[Sc As op Ci sp]
+22.8 +22.2 96 +31 +31 очень
душно
1009.7 1004.5
00 22.06 ЮЗ 1 1000 м дымка {туман} 5/0 300 м
[Ac trans Ci fib]
+22.7 +22.2 97 +31 +32 очень
душно
1010.5 1005.2 +22.3
03 22.06 штиль 0 8000 м 5/1 600 м
[Cu hum Ac trans Ci fib]
+29.7 +22.6 66 +39 +51 опасность
солнечного
удара
1010.7 1005.4
06 22.06 З 4 6000 м 5/1 600 м
[Cu hum As trans Ci fib]
+32.2 +22.6 57 +42 +49 опасность
перегрева
1010.6 1005.3
09 22.06 С 4 7000 м 9/4 540 м
[Sc As op Ci sp]
+32.0 +21.6 54 +40 +41 очень
душно
1008.1 1002.8
12 22.06 З 2 6000 м 9/4 540 м
[Sc As op Ci sp]
+29.9 +21.6 61 +38 +38 очень
душно
1008.2 1002.9 +32.6
15 22.06 З 2 8000 м 8/3 600 м
[Sc As trans Ci fib]
+24.5 +22.3 88 +32 +32 очень
душно
1011.5 1006.2
18 22.06 З 2 6000 м 8/3 600 м
[Sc As trans Ci fib]
+23.2 +22.2 94 +32 +32 очень
душно
1010.5 1005.2
21 22.06 штиль 0 2900 м дымка 6/1 600 м
[Sc As trans Ci fib]
+22.6 +22.2 98 +30 +30 очень
душно
1010.1 1004.8
00 23.06 штиль 0 1000 м дымка 8/1 600 м
[Sc As trans Ci fib]
+22.5 +22.0 97 +30 +31 очень
душно
1010.2 1004.9 +22.4
03 23.06 В 3 4000 м 6/3 600 м
[Sc As trans Ci fib]
+28.5 +23.1 73 +38 +44 очень
душно
1012.0 1006.7
06 23.06 штиль 0 7000 м 6/3 540 м
[Cu hum As trans Ci fib]
+31.8 +21.5 54 +40 +51 опасность
солнечного
удара
1010.0 1004.7
09 23.06 СЗ 3 6000 м 6/4 600 м
[Cu hum As trans Ci fib]
+32.7 +21.4 51 +40 +42 очень
душно
1008.7 1003.4
12 23.06 СЗ 3 7000 м 9/5 540 м
[Sc As op Ci sp]
+28.4 +21.2 65 +36 +36 очень
душно
1010.7 1005.4 +33.1
15 23.06 З 2 5000 м мгла 9/4 540 м
[Sc As trans Ci sp]
+24.2 +21.5 85 +31 +31 очень
душно
1012.1 1006.8
18 23.06 штиль 0 4000 м мгла 10/5 540 м
[Sc As trans]
+22.4 +21.3 94 +29 +29 очень
душно
1011.8 1006.5
21 23.06 штиль 0 3100 м дымка 9/5 540 м
[Sc Ac As]
+21.1 +20.4 96 +26 +26 душно 1010.8 1005.5
00 24.06 штиль 0 1200 м дымка 9/4 600 м
[Sc As trans Ci sp]
+22.0 +21.4 96 +29 +29 очень
душно
1012.2 1006.9 +21.3
03 24.06 ЮВ 2 5000 м мгла 5/3 600 м
[Cu hum As trans Ci sp]
+29.7 +23.0 67 +40 +48 очень
душно
1012.9 1007.6
06 24.06 штиль 0 5000 м мгла 8/4 540 м
[Cu med, cong As op Ci sp]
+32.2 +22.5 57 +42 +50 опасность
перегрева
1010.9 1005.6
09 24.06 СВ 2 6000 м 9/4 540 м
[Cu med, cong As op Ci sp]
+31.0 +22.1 59 +40 +41 очень
душно
1010.0 1004.7
12 24.06 штиль 0 7000 м 8/3 540 м
[Sc As op Ci sp]
+28.0 +23.5 77 +38 +38 очень
душно
1011.4 1006.1 +33.2
15 24.06 З 2 5000 м мгла 8/3 600 м
[Sc As trans Ci sp]
+25.1 +22.8 87 +33 +33 очень
душно
1013.3 1008.0
18 24.06 штиль 0 2400 м дымка 6/1 600 м
[Sc As trans Ci fib]
+23.2 +22.4 95 +32 +32 очень
душно
1012.7 1007.4
21 24.06 Ю 1 1600 м дымка 6/1 600 м
[Sc As trans Ci fib]
+22.1 +22.7 100 +29 +29 очень
душно
1012.1 1006.8
00 25.06 штиль 0 800 м туман на расстоянии 5/1 600 м
[Sc As trans Ci fib]
+21.8 +21.1 96 +28 +29 душно 1013.8 1008.5 +21.4
03 25.06 ЮВ 3 5000 м 4/0
[As trans Ci sp]
+29.5 +22.8 67 +39 +48 очень
душно
1014.0 1008.7
06 25.06 СВ 4 10 км 4/0
[As op Ci fib]
+33.6 +17.6 39 +37 +47 очень
душно
1010.9 1005.6
09 25.06 С 4 7000 м 9/5 540 м
[Sc As op Ci sp]
+32.3 +23.1 58 +42 +43 опасность
перегрева
1009.5 1004.2
12 25.06 СВ 2 8000 м 9/5 540 м
[Sc As op Ci sp]
+28.2 +23.1 74 +38 +38 очень
душно
1011.0 1005.7 +34.6
15 25.06 штиль 0 3000 м мгла 9/5 540 м
[Sc As op Ci sp]
+25.0 +22.9 88 +33 +33 очень
душно
1012.9 1007.6
18 25.06 штиль 0 1300 м дымка 10/5 540 м
[Sc As trans]
+23.6 +22.7 95 +31 +31 очень
душно
1012.3 1007.0
21 25.06 штиль 0 3900 м мгла 10/5 540 м
[Sc As trans]
+22.3 +21.7 96 +29 +29 очень
душно
1011.9 1006.6
00 26.06 штиль 0 700 м туман на расстоянии 9/4 600 м
[Sc As trans]
+21.6 +21.4 99 +28 +28 очень
душно
1012.0 1006.7 +21.1
03 26.06 СВ 2 5000 м 9/4 600 м
[Cu hum As op Ci fib]
+29.2 +23.4 71 +40 +44 очень
душно
1013.5 1008.2
06 26.06 штиль 0 9000 м 9/4 540 м
[Cu med, cong Ac trans Ci sp]
+32.3 +23.0 58 +42 +50 опасность
перегрева
1011.3 1006.0
09 26.06 С 2 5000 м 9/4 540 м
[Cu med, cong As op Ci sp]
+31.2 +22.9 61 +41 +42 опасность
перегрева
1009.7 1004.4
12 26.06 З 4 2900 м 8/4 540 м
[Sc As op Ci sp]
+26.8 +25.7 94 +40 +40 очень
душно
1011.9 1006.6 +33.0
15 26.06 штиль 0 4200 м мгла 9/4 540 м
[Sc As trans Ci sp]
+24.4 +22.3 88 +32 +32 очень
душно
1013.2 1007.9
18 26.06 штиль 0 1900 м мгла 9/5 540 м
[Sc As trans Ci sp]
+23.5 +22.0 91 +30 +30 очень
душно
1012.4 1007.1
21 26.06 штиль 0 1000 м дымка 10/5 540 м
[Sc As trans]
+22.2 +21.4 95 +29 +29 очень
душно
1011.3 1006.0

 

Местоположение метеостанции Чуруг (Индонезия): широта -6.23 долгота 106.65 высота над уровнем моря 46 м.

В архиве по умолчанию представлена погода в Чуруге за последнюю неделю. Архивные данные за месяц целиком и за предыдущие месяцы, начиная с января 2011 года, Вы можете получить, выбрав интересующий диапазон дат из раскрывающегося списка и нажав кнопку "Ввод!".


*Определитесь, кто Вы:
робот инопланетянин человек

Внимание! Время в таблицах - всемирное. Для получения местного времени необходимо прибавить поправку, которая равна 7 ч.

Смотрите также архив погоды в соседних городах и на ближайших метеорологических станциях:

Погода в Аэропорту Сукарно-Хатта (Индонезия) (12 км)
Погода в Джакарте (Индонезия) (21 км)
Погода в Джакарта порту (Индонезия) (28 км)
Погода в Серанге (Индонезия) (59 км)
Погода в Цитеко (Индонезия) (61 км)
Погода в Бандунге (Индонезия) (127 км)
Погода в Сиребоне (Индонезия) (187 км)
Погода в Танджунгкаранге (Индонезия) (206 км)
Погода в Тегале (Индонезия) (285 км)
Погода в Чилачапе (Индонезия) (309 км)

Пояснения к столбцам:

Ветер - указаны скорость ветра в м/с - средняя за 10 мин, порывы в срок и между сроками (в фигурных скобках) и направление, откуда дует ветер: С - северный, СВ - северо-восточный, В - восточный, ЮВ - юго-восточный, Ю - южный, ЮЗ - юго-западный, З - западный, СЗ - северо-западный.
Видимость - горизонтальная дальность видимости в метрах или километрах. При видимости от 1 до 10 км при отсутствии осадков обычно наблюдается дымка, при ухудшении видимости до 1 км и менее - туман. В сухую погоду видимость может ухудшаться дымом, пылью или мглою.
Явления - указаны атмосферные явления, наблюдавшиеся в срок или в последний час перед сроком; фигурными скобками обозначены явления, наблюдавшиеся между сроками (за 1-3 часа до срока); квадратными скобками обозначены град или гололедные отложения с указанием их диаметра в мм.
Облачность - указаны через наклонную черту общая и нижняя облачность в баллах и высота нижней границы облаков в метрах; квадратными скобками обозначены формы облаков: Ci - перистые, Cs - перисто-слоистые, Cc - перисто-кучевые, Ac - высококучевые, As - высокослоистые, Sc - слоисто-кучевые, Ns - слоисто-дождевые, Cu - кучевые, Cb - кучево-дождевые. Подробнее классификацию облаков см. в Атласе облаков (PDF).
T - Температура воздуха - температура, измеренная на высоте 2 м над землей.
Td - Температура точки росы - температура, при понижении до которой содержащийся в воздухе водяной пар достигнет насыщения.
f - Относительная влажность воздуха - влажноcть воздуха, измеренная на высоте 2 м над землей.
Te - Эффективная температура - температура, которую ощущает одетый по сезону человек в тени. Характеристика душности погоды. При расчете учитывается влияние влажности воздуха и скорости ветра на теплоощущения человека.
Tes - Эффективная температура на солнце - температура, которую ощущает человек, с поправкой на солнечный нагрев. Характеристика знойности погоды. Зависит от высоты солнца над горизонтом, облачности и скорости ветра. Ночью, в пасмурную погоду, а также при ветре 12 м/с и более поправка равна нулю.
P - Атмосферное давление - приведенное к уровню моря атмосферное давление.
Po - Атмосферное давление - измеренное на уровне метеостанции атмосферное давление.
Tmin - Минимальная температура - минимум температуры воздуха на высоте 2 м над землей.
Tmax - Максимальная температура - максимум температуры воздуха на высоте 2 м над землей.
R - Количество осадков - Количество выпавших осадков за период времени, мм. При наведении курсора мыши на число - период времени, за который выпало указанное количество осадков.
R24 - Количество осадков - Количество выпавших осадков за 24 часа, мм.
S - Снежный покров - Высота снежного покрова, см. При наведении курсора мыши на число - состояние снежного покрова и степень покрытия местности в баллах.